QPF
0.07 0.08 0.07 0.08 0.08 0.08 0.09 0.08 0.07 0.06 0.05 0.04 0.04 0.03 0.03 0.05 0.07 0.07 0.07 0.06 0.04 0.03 0.02 0.02 0.02 0.03 0.03 0.03 0.02 0.02 0.03 0.03 0.04 0.05 0.05 0.04 0.03 0.03
0.08 0.08 0.08 0.07 0.08 0.09 0.09 0.08 0.06 0.05 0.03 0.02 0.02 0.03 0.03 0.04 0.06 0.07 0.08 0.08 0.05 0.04 0.03 0.02 0.02 0.02 0.03 0.03 0.01 0.01 0.02 0.02 0.03 0.04 0.04 0.04 0.04 0.03
0.08 0.09 0.08 0.07 0.08 0.08 0.09 0.08 0.05 0.04 0.03 0.01 0.01 0.02 0.03 0.03 0.03 0.05 0.06 0.07 0.07 0.05 0.04 0.03 0.02 0.02 0.02 0.02 0.01 0.01 0.01 0.02 0.02 0.03 0.03 0.03 0.04 0.04
0.06 0.07 0.08 0.07 0.08 0.08 0.08 0.07 0.05 0.04 0.03 0.01 0.01 0.02 0.02 0.02 0.02 0.03 0.03 0.05 0.06 0.06 0.04 0.03 0.03 0.02 0.02 0.02 0.01 0.01 0.01 0.01 0.02 0.03 0.04 0.04 0.03 0.02
0.04 0.05 0.06 0.07 0.07 0.08 0.07 0.06 0.05 0.04 0.02 0.01 0.01 0.01 0.02 0.02 0.03 0.03 0.03 0.03 0.03 0.05 0.05 0.04 0.03 0.03 0.02 0.02 0.02 0.02 0.02 0.02 0.02 0.03 0.04 0.04 0.04 0.03
0.03 0.04 0.05 0.06 0.07 0.07 0.07 0.06 0.05 0.04 0.03 0.02 0.01 0.01 0.02 0.02 0.02 0.03 0.04 0.03 0.03 0.03 0.03 0.04 0.04 0.03 0.03 0.03 0.02 0.02 0.02 0.03 0.03 0.03 0.04 0.05 0.05 0.04
0.03 0.03 0.04 0.05 0.06 0.06 0.06 0.07 0.07 0.06 0.04 0.02 0.01 0.01 0.01 0.01 0.02 0.03 0.03 0.04 0.03 0.03 0.03 0.03 0.03 0.03 0.03 0.04 0.03 0.02 0.02 0.03 0.03 0.03 0.03 0.04 0.05 0.05
0.03 0.03 0.03 0.04 0.05 0.06 0.05 0.06 0.06 0.06 0.04 0.02 0.01 0.01 0.01 0.01 0.01 0.01 0.03 0.04 0.04 0.03 0.03 0.03 0.03 0.03 0.03 0.04 0.04 0.03 0.03 0.03 0.03 0.03 0.03 0.03 0.04 0.05
0.04 0.03 0.04 0.04 0.06 0.05 0.05 0.05 0.05 0.05 0.03 0.02 0.01 0.01 0.00 0.01 0.01 0.01 0.02 0.04 0.04 0.03 0.03 0.03 0.03 0.03 0.03 0.03 0.03 0.03 0.03 0.03 0.03 0.02 0.02 0.03 0.03 0.03
0.05 0.04 0.04 0.04 0.05 0.06 0.05 0.05 0.05 0.05 0.03 0.02 0.01 0.01 0.01 0.01 0.01 0.01 0.02 0.03 0.04 0.04 0.04 0.04 0.03 0.03 0.02 0.03 0.04 0.03 0.03 0.03 0.04 0.03 0.02 0.02 0.02 0.03
0.06 0.06 0.05 0.04 0.05 0.06 0.07 0.06 0.06 0.06 0.05 0.03 0.02 0.02 0.01 0.01 0.01 0.02 0.03 0.04 0.05 0.05 0.05 0.04 0.03 0.02 0.02 0.03 0.04 0.05 0.05 0.05 0.05 0.05 0.04 0.03 0.02 0.03
0.07 0.06 0.06 0.05 0.05 0.06 0.06 0.06 0.06 0.05 0.06 0.06 0.05 0.04 0.02 0.01 0.01 0.01 0.02 0.03 0.03 0.04 0.04 0.04 0.03 0.03 0.03 0.03 0.03 0.04 0.05 0.05 0.06 0.05 0.06 0.06 0.04 0.03
0.08 0.07 0.06 0.07 0.07 0.06 0.06 0.06 0.05 0.05 0.05 0.06 0.06 0.05 0.04 0.02 0.02 0.01 0.02 0.03 0.03 0.03 0.03 0.04 0.04 0.03 0.03 0.03 0.03 0.03 0.03 0.05 0.05 0.05 0.05 0.06 0.07 0.06
0.09 0.08 0.07 0.08 0.08 0.08 0.06 0.06 0.06 0.07 0.07 0.07 0.07 0.06 0.05 0.03 0.03 0.02 0.03 0.03 0.02 0.02 0.02 0.02 0.03 0.04 0.03 0.02 0.02 0.02 0.03 0.03 0.04 0.04 0.05 0.06 0.07 0.07
0.07 0.08 0.07 0.07 0.07 0.07 0.08 0.07 0.07 0.07 0.08 0.08 0.06 0.06 0.04 0.03 0.03 0.03 0.03 0.02 0.02 0.02 0.02 0.02 0.03 0.03 0.04 0.03 0.02 0.02 0.02 0.03 0.03 0.04 0.04 0.05 0.06 0.06
0.06 0.07 0.06 0.06 0.07 0.07 0.07 0.08 0.07 0.07 0.07 0.06 0.05 0.04 0.03 0.03 0.03 0.02 0.03 0.03 0.04 0.03 0.03 0.03 0.03 0.03 0.04 0.04 0.03 0.03 0.02 0.02 0.03 0.04 0.04 0.04 0.05 0.05
0.08 0.08 0.06 0.06 0.07 0.07 0.07 0.06 0.06 0.07 0.07 0.05 0.05 0.04 0.04 0.04 0.03 0.03 0.04 0.04 0.04 0.04 0.04 0.04 0.04 0.05 0.04 0.04 0.04 0.04 0.03 0.03 0.02 0.03 0.04 0.05 0.05 0.05
0.08 0.08 0.07 0.06 0.07 0.07 0.07 0.06 0.07 0.07 0.07 0.06 0.05 0.05 0.04 0.04 0.04 0.04 0.05 0.05 0.04 0.04 0.04 0.04 0.04 0.05 0.06 0.06 0.05 0.04 0.05 0.04 0.03 0.03 0.03 0.04 0.05 0.05
0.06 0.07 0.07 0.06 0.06 0.06 0.07 0.07 0.07 0.07 0.07 0.07 0.06 0.06 0.05 0.04 0.04 0.05 0.05 0.06 0.06 0.06 0.05 0.04 0.04 0.04 0.05 0.04 0.04 0.04 0.04 0.04 0.04 0.03 0.03 0.03 0.04 0.04
0.07 0.07 0.07 0.07 0.06 0.06 0.07 0.07 0.07 0.07 0.08 0.08 0.07 0.06 0.06 0.05 0.05 0.05 0.05 0.05 0.06 0.06 0.06 0.06 0.05 0.04 0.03 0.03 0.03 0.03 0.03 0.04 0.04 0.05 0.04 0.04 0.04 0.04
0.08 0.08 0.07 0.07 0.07 0.07 0.07 0.07 0.07 0.07 0.07 0.08 0.07 0.07 0.06 0.06 0.06 0.05 0.05 0.06 0.06 0.06 0.05 0.05 0.05 0.05 0.05 0.05 0.05 0.04 0.04 0.05 0.04 0.04 0.05 0.04 0.04 0.04
0.10 0.09 0.09 0.07 0.07 0.07 0.07 0.07 0.07 0.07 0.07 0.07 0.07 0.06 0.05 0.05 0.05 0.05 0.05 0.05 0.05 0.05 0.04 0.04 0.05 0.05 0.06 0.06 0.06 0.05 0.05 0.05 0.06 0.06 0.06 0.05 0.04 0.03
0.09 0.10 0.10 0.10 0.08 0.07 0.06 0.06 0.07 0.06 0.06 0.06 0.06 0.05 0.05 0.05 0.05 0.05 0.05 0.05 0.04 0.04 0.04 0.05 0.06 0.06 0.06 0.07 0.06 0.05 0.05 0.05 0.05 0.06 0.06 0.06 0.05 0.04
MSLP
1021.23 1021.09 1020.97 1020.88 1020.81 1020.80 1020.86 1020.98 1021.17 1021.41 1021.70 1022.03 1022.37 1022.70 1023.02 1023.30 1023.55 1023.75 1023.91 1024.04 1024.13 1024.20 1024.26 1024.32 1024.39 1024.47 1024.56 1024.67 1024.78 1024.90 1025.00 1025.07 1025.10 1025.09 1025.04 1024.94 1024.80 1024.64
1021.24 1021.12 1020.98 1020.86 1020.76 1020.69 1020.68 1020.73 1020.85 1021.04 1021.29 1021.60 1021.94 1022.31 1022.68 1023.03 1023.37 1023.67 1023.93 1024.15 1024.33 1024.48 1024.59 1024.69 1024.78 1024.87 1024.96 1025.06 1025.15 1025.24 1025.32 1025.38 1025.40 1025.37 1025.30 1025.18 1025.02 1024.83
1021.19 1021.07 1020.93 1020.79 1020.66 1020.55 1020.48 1020.48 1020.54 1020.68 1020.89 1021.17 1021.51 1021.90 1022.30 1022.71 1023.12 1023.49 1023.84 1024.14 1024.40 1024.61 1024.78 1024.92 1025.04 1025.13 1025.23 1025.31 1025.40 1025.47 1025.54 1025.58 1025.58 1025.55 1025.47 1025.33 1025.16 1024.96
1021.03 1020.92 1020.78 1020.63 1020.48 1020.34 1020.24 1020.19 1020.22 1020.32 1020.50 1020.77 1021.10 1021.49 1021.92 1022.36 1022.80 1023.24 1023.64 1024.00 1024.32 1024.58 1024.80 1024.97 1025.11 1025.23 1025.32 1025.41 1025.48 1025.56 1025.61 1025.65 1025.66 1025.62 1025.54 1025.41 1025.23 1025.02
1020.74 1020.63 1020.50 1020.34 1020.18 1020.03 1019.92 1019.85 1019.86 1019.95 1020.12 1020.37 1020.70 1021.08 1021.51 1021.96 1022.43 1022.88 1023.32 1023.72 1024.07 1024.37 1024.62 1024.83 1024.99 1025.12 1025.23 1025.32 1025.40 1025.48 1025.54 1025.59 1025.61 1025.59 1025.52 1025.40 1025.23 1025.02
1020.30 1020.20 1020.06 1019.91 1019.75 1019.60 1019.49 1019.43 1019.44 1019.53 1019.71 1019.95 1020.27 1020.65 1021.07 1021.52 1021.98 1022.44 1022.88 1023.29 1023.67 1023.99 1024.27 1024.50 1024.68 1024.83 1024.96 1025.06 1025.16 1025.25 1025.33 1025.40 1025.44 1025.44 1025.40 1025.30 1025.15 1024.95
1019.71 1019.60 1019.46 1019.32 1019.16 1019.04 1018.95 1018.91 1018.94 1019.05 1019.24 1019.49 1019.81 1020.17 1020.58 1021.01 1021.45 1021.90 1022.33 1022.74 1023.12 1023.46 1023.76 1024.00 1024.21 1024.39 1024.53 1024.66 1024.77 1024.88 1024.98 1025.07 1025.14 1025.17 1025.15 1025.08 1024.96 1024.78
1018.99 1018.86 1018.72 1018.57 1018.44 1018.33 1018.28 1018.27 1018.34 1018.48 1018.68 1018.95 1019.27 1019.63 1020.01 1020.42 1020.84 1021.27 1021.69 1022.09 1022.47 1022.82 1023.14 1023.41 1023.64 1023.84 1024.00 1024.15 1024.28 1024.41 1024.52 1024.63 1024.72 1024.78 1024.79 1024.75 1024.65 1024.50
1018.15 1018.00 1017.86 1017.71 1017.59 1017.52 1017.49 1017.53 1017.64 1017.81 1018.04 1018.32 1018.65 1019.00 1019.37 1019.76 1020.16 1020.57 1020.98 1021.38 1021.77 1022.14 1022.47 1022.76 1023.02 1023.24 1023.42 1023.58 1023.73 1023.86 1023.98 1024.10 1024.20 1024.27 1024.31 1024.29 1024.21 1024.08
1017.23 1017.06 1016.90 1016.76 1016.65 1016.60 1016.61 1016.69 1016.84 1017.05 1017.31 1017.61 1017.94 1018.29 1018.66 1019.04 1019.43 1019.84 1020.24 1020.66 1021.06 1021.45 1021.81 1022.13 1022.41 1022.65 1022.84 1023.01 1023.15 1023.28 1023.39 1023.50 1023.60 1023.67 1023.71 1023.71 1023.66 1023.55
1016.26 1016.07 1015.90 1015.75 1015.66 1015.63 1015.67 1015.78 1015.97 1016.21 1016.50 1016.82 1017.17 1017.53 1017.90 1018.28 1018.68 1019.09 1019.52 1019.95 1020.38 1020.80 1021.19 1021.54 1021.85 1022.10 1022.30 1022.46 1022.58 1022.69 1022.78 1022.87 1022.95 1023.01 1023.05 1023.05 1023.01 1022.92
1015.27 1015.06 1014.87 1014.72 1014.63 1014.62 1014.69 1014.83 1015.05 1015.32 1015.64 1015.99 1016.35 1016.72 1017.11 1017.51 1017.92 1018.36 1018.82 1019.28 1019.75 1020.21 1020.64 1021.02 1021.34 1021.60 1021.80 1021.95 1022.05 1022.12 1022.18 1022.23 1022.28 1022.32 1022.35 1022.35 1022.32 1022.25
1014.26 1014.02 1013.82 1013.67 1013.59 1013.59 1013.69 1013.86 1014.11 1014.41 1014.76 1015.13 1015.51 1015.91 1016.32 1016.74 1017.19 1017.66 1018.15 1018.66 1019.18 1019.68 1020.14 1020.55 1020.89 1021.16 1021.35 1021.48 1021.55 1021.59 1021.61 1021.62 1021.64 1021.65 1021.67 1021.67 1021.64 1021.58
1013.22 1012.97 1012.76 1012.61 1012.54 1012.56 1012.68 1012.88 1013.16 1013.49 1013.87 1014.26 1014.68 1015.10 1015.54 1016.00 1016.48 1016.99 1017.53 1018.08 1018.64 1019.18 1019.68 1020.12 1020.47 1020.74 1020.93 1021.04 1021.09 1021.09 1021.08 1021.06 1021.04 1021.04 1021.04 1021.03 1021.01 1020.96
1012.15 1011.89 1011.68 1011.54 1011.49 1011.54 1011.68 1011.91 1012.22 1012.59 1013.00 1013.42 1013.87 1014.33 1014.80 1015.29 1015.81 1016.36 1016.94 1017.54 1018.13 1018.71 1019.23 1019.69 1020.07 1020.35 1020.53 1020.63 1020.66 1020.64 1020.60 1020.56 1020.52 1020.50 1020.49 1020.48 1020.46 1020.41
1011.04 1010.79 1010.59 1010.47 1010.45 1010.53 1010.71 1010.98 1011.32 1011.73 1012.17 1012.63 1013.11 1013.61 1014.12 1014.64 1015.20 1015.78 1016.39 1017.02 1017.65 1018.25 1018.80 1019.28 1019.66 1019.95 1020.15 1020.24 1020.27 1020.25 1020.20 1020.14 1020.09 1020.05 1020.03 1020.01 1019.98 1019.94
1009.93 1009.70 1009.54 1009.45 1009.47 1009.59 1009.81 1010.12 1010.51 1010.95 1011.43 1011.93 1012.45 1012.98 1013.52 1014.08 1014.66 1015.27 1015.90 1016.55 1017.19 1017.81 1018.38 1018.87 1019.28 1019.58 1019.78 1019.90 1019.93 1019.91 1019.86 1019.80 1019.74 1019.69 1019.65 1019.61 1019.56 1019.49
1008.90 1008.71 1008.59 1008.55 1008.62 1008.78 1009.05 1009.41 1009.84 1010.32 1010.84 1011.37 1011.92 1012.48 1013.05 1013.63 1014.23 1014.86 1015.50 1016.16 1016.81 1017.43 1018.00 1018.51 1018.92 1019.24 1019.47 1019.60 1019.65 1019.64 1019.59 1019.53 1019.45 1019.38 1019.31 1019.24 1019.15 1019.04
1008.06 1007.93 1007.86 1007.88 1008.00 1008.21 1008.52 1008.92 1009.39 1009.90 1010.45 1011.02 1011.60 1012.17 1012.76 1013.36 1013.96 1014.59 1015.23 1015.88 1016.52 1017.14 1017.71 1018.21 1018.64 1018.97 1019.21 1019.35 1019.42 1019.42 1019.37 1019.30 1019.20 1019.10 1018.98 1018.85 1018.71 1018.54
1007.54 1007.48 1007.48 1007.55 1007.71 1007.97 1008.32 1008.75 1009.24 1009.77 1010.34 1010.92 1011.51 1012.10 1012.70 1013.29 1013.90 1014.51 1015.13 1015.76 1016.38 1016.98 1017.53 1018.02 1018.44 1018.77 1019.01 1019.16 1019.23 1019.22 1019.17 1019.07 1018.94 1018.79 1018.61 1018.42 1018.20 1017.95
1007.48 1007.48 1007.54 1007.66 1007.86 1008.14 1008.51 1008.95 1009.44 1009.98 1010.55 1011.13 1011.72 1012.30 1012.88 1013.47 1014.05 1014.64 1015.23 1015.82 1016.40 1016.96 1017.47 1017.93 1018.32 1018.63 1018.86 1018.99 1019.05 1019.03 1018.94 1018.81 1018.63 1018.42 1018.17 1017.90 1017.59 1017.26
1007.93 1007.99 1008.09 1008.24 1008.46 1008.75 1009.11 1009.53 1010.01 1010.53 1011.07 1011.63 1012.20 1012.76 1013.32 1013.87 1014.41 1014.96 1015.50 1016.04 1016.56 1017.06 1017.52 1017.92 1018.27 1018.53 1018.72 1018.82 1018.84 1018.79 1018.66 1018.48 1018.24 1017.96 1017.64 1017.29 1016.91 1016.50
1008.90 1009.00 1009.12 1009.28 1009.49 1009.75 1010.08 1010.46 1010.90 1011.37 1011.87 1012.39 1012.91 1013.43 1013.94 1014.45 1014.94 1015.43 1015.91 1016.38 1016.82 1017.24 1017.62 1017.95 1018.22 1018.43 1018.55 1018.60 1018.57 1018.46 1018.28 1018.04 1017.75 1017.40 1017.02 1016.61 1016.16 1015.69
Thickness
5510 5512 5515 5519 5522 5526 5530 5533 5537 5544 5550 5551 5550 5551 5552 5554 5555 5556 5558 5560 5562 5563 5563 5564 5565 5565 5565 5566 5566 5566 5566 5566 5565 5564 5563 5563 5562 5561
5499 5502 5505 5508 5512 5515 5518 5522 5527 5533 5539 5542 5541 5542 5541 5542 5544 5545 5547 5549 5551 5552 5553 5554 5555 5556 5556 5557 5557 5557 5558 5558 5558 5557 5556 5556 5555 5554
5489 5493 5495 5498 5502 5506 5508 5512 5515 5520 5526 5530 5529 5530 5531 5532 5533 5535 5537 5539 5541 5543 5544 5545 5546 5546 5547 5548 5548 5549 5549 5550 5549 5549 5548 5548 5548 5547
5481 5484 5486 5488 5493 5496 5499 5502 5506 5510 5514 5518 5519 5519 5521 5522 5523 5525 5526 5529 5531 5533 5535 5536 5536 5537 5538 5538 5539 5540 5540 5541 5541 5541 5541 5540 5540 5538
5472 5475 5478 5480 5484 5487 5490 5493 5497 5500 5504 5508 5510 5510 5511 5512 5513 5514 5516 5518 5521 5523 5525 5526 5527 5528 5529 5529 5530 5530 5531 5532 5533 5532 5531 5531 5530 5529
5463 5466 5470 5474 5477 5479 5482 5484 5487 5490 5493 5496 5499 5499 5500 5501 5502 5504 5506 5508 5511 5513 5515 5517 5518 5518 5519 5520 5521 5521 5521 5521 5522 5522 5521 5521 5520 5520
5454 5458 5462 5465 5468 5470 5474 5476 5477 5480 5483 5486 5488 5489 5490 5491 5494 5495 5496 5499 5501 5503 5505 5507 5509 5510 5510 5511 5512 5512 5512 5512 5512 5512 5512 5511 5510 5510
5446 5450 5454 5456 5459 5461 5464 5467 5469 5471 5475 5477 5480 5481 5483 5484 5484 5484 5486 5488 5493 5495 5495 5498 5499 5501 5502 5503 5503 5503 5503 5502 5502 5502 5502 5501 5501 5500
5438 5442 5446 5450 5451 5453 5455 5457 5459 5461 5465 5469 5471 5473 5474 5475 5474 5475 5476 5479 5483 5484 5483 5488 5490 5492 5493 5494 5494 5493 5493 5492 5492 5492 5491 5491 5491 5490
5429 5434 5438 5442 5444 5445 5446 5448 5451 5453 5456 5458 5462 5464 5462 5462 5463 5465 5466 5467 5469 5470 5471 5477 5480 5482 5483 5483 5484 5483 5483 5483 5483 5482 5481 5481 5480 5480
5421 5427 5430 5434 5436 5436 5437 5440 5443 5444 5445 5447 5449 5450 5450 5451 5451 5451 5453 5454 5458 5460 5460 5464 5468 5469 5471 5473 5473 5472 5472 5471 5471 5471 5470 5470 5470 5470
5414 5419 5422 5426 5428 5427 5429 5431 5434 5436 5436 5436 5436 5437 5438 5439 5440 5442 5444 5446 5447 5449 5450 5450 5454 5455 5458 5462 5461 5460 5460 5460 5460 5460 5460 5459 5458 5457
5405 5411 5416 5418 5420 5420 5421 5424 5427 5427 5426 5427 5427 5427 5427 5428 5429 5431 5433 5436 5438 5440 5440 5438 5441 5442 5444 5448 5449 5449 5449 5449 5448 5449 5448 5448 5446 5445
5396 5402 5406 5409 5411 5411 5412 5415 5415 5414 5415 5416 5416 5417 5418 5420 5420 5421 5422 5424 5427 5429 5428 5427 5428 5430 5430 5433 5436 5437 5437 5436 5436 5436 5436 5436 5434 5433
5387 5392 5396 5399 5400 5401 5403 5403 5403 5403 5404 5406 5408 5409 5410 5410 5409 5409 5410 5411 5413 5414 5416 5416 5417 5418 5418 5420 5423 5424 5424 5424 5424 5424 5424 5423 5423 5422
5376 5381 5385 5387 5389 5391 5392 5392 5392 5394 5396 5397 5398 5398 5398 5397 5398 5399 5400 5400 5401 5402 5402 5403 5404 5405 5406 5408 5410 5411 5412 5412 5412 5411 5411 5411 5410 5410
5366 5370 5374 5377 5379 5381 5383 5383 5384 5385 5385 5386 5386 5387 5387 5388 5388 5389 5390 5390 5391 5392 5392 5391 5391 5392 5393 5395 5397 5399 5400 5400 5400 5398 5397 5399 5399 5399
5358 5363 5365 5368 5370 5372 5373 5374 5374 5375 5376 5376 5376 5377 5377 5377 5378 5378 5379 5380 5381 5382 5381 5381 5379 5379 5380 5382 5384 5387 5387 5387 5387 5386 5385 5386 5389 5389
5351 5354 5356 5358 5360 5361 5362 5363 5364 5365 5365 5365 5365 5366 5366 5366 5367 5368 5369 5369 5370 5370 5370 5369 5369 5369 5371 5375 5376 5373 5374 5374 5373 5373 5373 5373 5376 5378
5340 5343 5346 5347 5349 5351 5351 5352 5352 5353 5353 5354 5354 5355 5355 5355 5356 5356 5357 5358 5359 5358 5358 5358 5358 5360 5361 5364 5363 5362 5360 5361 5361 5361 5360 5360 5361 5362
5328 5331 5333 5335 5337 5338 5340 5340 5341 5342 5342 5343 5344 5344 5344 5345 5346 5346 5347 5346 5347 5347 5349 5350 5349 5348 5347 5346 5348 5350 5350 5348 5348 5348 5347 5347 5348 5350
5315 5318 5321 5324 5326 5327 5329 5329 5330 5330 5331 5333 5333 5334 5334 5335 5336 5336 5337 5337 5337 5338 5339 5338 5337 5336 5335 5337 5339 5340 5339 5337 5336 5336 5335 5335 5335 5339
5303 5306 5309 5312 5315 5317 5318 5318 5319 5320 5321 5323 5323 5324 5324 5325 5326 5326 5326 5326 5327 5327 5327 5327 5326 5326 5326 5326 5327 5327 5327 5327 5327 5327 5326 5325 5326 5327